Beaver Island, MI

2:40 PM EST on December 10, 2016 (GMT -0500)
Beaver Island

Weather History for KSJX - May, 2013

Change the Weather History Date:

Friday, May 31, 2013

  Actual Average Record
Temperature  
Mean Temperature 66 °F -  
Max Temperature 73 °F 64 °F 81 °F (2014)
Min Temperature 60 °F 44 °F 32 °F (1966)
Cooling Degree Days 2    
Growing Degree Days 16 (Base 50)    
Moisture  
Dew Point 60 °F    
Average Humidity 80    
Maximum Humidity 92    
Minimum Humidity 71    
Precipitation  
Precipitation 0.00 in - - ()
Sea Level Pressure  
Sea Level Pressure 29.80 in    
Wind  
Wind Speed 11 mph (SSW)    
Max Wind Speed 20 mph    
Max Gust Speed 31 mph    
Visibility 10 miles    
Events Rain    
Averages and records for this station are not official NWS values.
T = Trace of Precipitation, MM = Missing Value Source: NWS Daily Summary

Daily Weather History Graph

Daily Weather History Graph

Search for Another Location

Airport or City:

Trip Planner

Search our weather history database for the weather conditions in past years. The results will help you decide how hot, cold, wet, or windy it might be!

Date:

Astronomy

May. 31, 2013 Rise Set
Actual Time 5:56 AM EDT 9:23 PM EDT
Civil Twilight 5:19 AM EDT 10:00 PM EDT
Nautical Twilight 4:31 AM EDT 10:49 PM EDT
Astronomical Twilight 3:28 AM EDT 11:52 PM EDT
Moon 1:43 AM EDT (5/31) 1:27 PM EDT (5/31)
Length of Visible Light 16h 41m
Length of Day
15h 27m
Waning Gibbous, 51% of the Moon is Illuminated
May 31
Waning Gibbous
May 31
Last Quarter
Jun 8
New
Jun 16
First Quarter
Jun 23
Full

Hourly Weather History & Observations

Time (EDT) Temp. Dew Point Humidity Pressure Visibility Wind Dir Wind Speed Gust Speed Precip Events Conditions
12:15 AM 73.4 °F 63.7 °F 71% 29.85 in 10.0 mi South 11.5 mph 19.6 mph N/A   Scattered Clouds
12:34 AM 71.6 °F 62.6 °F 73% 29.86 in 10.0 mi SSE 10.4 mph 18.4 mph N/A   Clear
12:55 AM 68.9 °F 60.6 °F 75% 29.85 in 10.0 mi SSE 12.7 mph 16.1 mph N/A   Scattered Clouds
1:15 AM 69.4 °F 60.8 °F 74% 29.86 in 10.0 mi SSE 15.0 mph 23.0 mph N/A   Scattered Clouds
1:35 AM 68.4 °F 61.2 °F 78% 29.86 in 10.0 mi SSE 11.5 mph 20.7 mph N/A   Scattered Clouds
1:55 AM 67.6 °F 61.5 °F 81% 29.85 in 10.0 mi SSE 11.5 mph 19.6 mph N/A   Scattered Clouds
2:15 AM 67.1 °F 61.7 °F 83% 29.83 in 10.0 mi SSE 9.2 mph 18.4 mph N/A   Clear
2:35 AM 67.1 °F 61.9 °F 83% 29.83 in 10.0 mi SSE 10.4 mph - N/A   Clear
2:54 AM 67.1 °F 62.1 °F 84% 29.83 in 10.0 mi SSE 8.1 mph 18.4 mph N/A   Clear
3:15 AM 67.1 °F 62.2 °F 84% 29.81 in 10.0 mi SSE 10.4 mph 18.4 mph N/A   Clear
3:35 AM 67.1 °F 62.6 °F 85% 29.81 in 10.0 mi SSE 12.7 mph 18.4 mph N/A   Clear
3:54 AM 67.3 °F 62.6 °F 85% 29.80 in 10.0 mi SSE 8.1 mph 16.1 mph N/A   Clear
4:15 AM 67.5 °F 62.8 °F 85% 29.80 in 10.0 mi SSE 5.8 mph - N/A   Clear
4:35 AM 67.1 °F 62.8 °F 86% 29.79 in 10.0 mi SSE 4.6 mph - N/A   Clear
4:55 AM 67.1 °F 62.6 °F 85% 29.78 in 10.0 mi South 6.9 mph - N/A   Scattered Clouds
5:15 AM 67.8 °F 63.0 °F 84% 29.79 in 10.0 mi South 8.1 mph - N/A   Scattered Clouds
5:35 AM 67.3 °F 62.8 °F 85% 29.80 in 10.0 mi SSW 5.8 mph - N/A   Clear
5:55 AM 63.5 °F 60.3 °F 89% 29.81 in 10.0 mi SSW 9.2 mph - N/A   Mostly Cloudy
6:15 AM 63.7 °F 61.3 °F 92% 29.81 in 5.0 mi South 5.8 mph - N/A   Mostly Cloudy
6:35 AM 64.6 °F 61.9 °F 91% 29.80 in 10.0 mi Calm Calm - N/A   Scattered Clouds
6:55 AM 65.1 °F 59.4 °F 82% 29.79 in 10.0 mi SSW 6.9 mph - N/A   Clear
7:15 AM 65.3 °F 58.1 °F 77% 29.79 in 10.0 mi South 4.6 mph - N/A   Clear
7:35 AM 65.3 °F 59.0 °F 80% 29.79 in 10.0 mi South 4.6 mph - N/A   Clear
7:55 AM 67.6 °F 61.9 °F 82% 29.79 in 10.0 mi South 5.8 mph - N/A   Clear
8:15 AM 68.2 °F 61.9 °F 80% 29.78 in 10.0 mi South 5.8 mph - N/A   Mostly Cloudy
8:35 AM 68.4 °F 61.9 °F 80% 29.79 in 10.0 mi South 6.9 mph - N/A   Overcast
8:55 AM 68.4 °F 60.8 °F 77% 29.79 in 10.0 mi South 8.1 mph 18.4 mph N/A Rain Light Rain
9:15 AM 67.8 °F 61.0 °F 79% 29.79 in 10.0 mi South 6.9 mph - N/A   Overcast
9:35 AM 66.0 °F 61.3 °F 85% 29.80 in 4.0 mi SSW 8.1 mph - N/A Rain Heavy Rain
9:55 AM 60.4 °F 57.4 °F 90% 29.82 in 2.5 mi SW 11.5 mph 21.9 mph N/A Rain Rain
10:15 AM 60.8 °F 58.5 °F 92% 29.80 in 7.0 mi SSW 10.4 mph - N/A   Light Drizzle
10:35 AM 63.5 °F 60.8 °F 91% 29.81 in 10.0 mi SSW 13.8 mph 20.7 mph N/A   Mostly Cloudy
10:54 AM 64.8 °F 61.0 °F 88% 29.81 in 10.0 mi SSW 12.7 mph 20.7 mph N/A   Mostly Cloudy
11:15 AM 65.3 °F 61.0 °F 86% 29.82 in 10.0 mi SSW 15.0 mph 24.2 mph N/A   Overcast
11:35 AM 66.9 °F 61.0 °F 81% 29.82 in 10.0 mi SSW 12.7 mph 23.0 mph N/A   Scattered Clouds
11:54 AM 66.7 °F 59.4 °F 77% 29.82 in 10.0 mi SSW 13.8 mph 24.2 mph N/A   Mostly Cloudy
12:15 PM 66.6 °F 60.1 °F 80% 29.82 in 10.0 mi SSW 17.3 mph 31.1 mph N/A   Scattered Clouds
12:35 PM 65.1 °F 59.2 °F 81% 29.83 in 10.0 mi SSW 15.0 mph 25.3 mph N/A   Mostly Cloudy
12:55 PM 63.5 °F 58.3 °F 83% 29.83 in 10.0 mi SSW 16.1 mph 25.3 mph N/A   Overcast
1:15 PM 66.9 °F 59.4 °F 77% 29.82 in 10.0 mi SW 18.4 mph 26.5 mph N/A   Scattered Clouds
1:35 PM 67.1 °F 59.0 °F 75% 29.81 in 10.0 mi SW 19.6 mph 27.6 mph N/A   Clear
1:55 PM 68.9 °F 60.6 °F 75% 29.81 in 10.0 mi SW 19.6 mph 27.6 mph N/A   Clear
2:15 PM 68.5 °F 60.4 °F 75% 29.81 in 10.0 mi SSW 15.0 mph 28.8 mph N/A   Clear
2:35 PM 66.9 °F 59.0 °F 76% 29.81 in 10.0 mi SSW 17.3 mph 25.3 mph N/A   Clear
2:55 PM 64.8 °F 59.2 °F 82% 29.82 in 10.0 mi SW 18.4 mph 27.6 mph N/A   Mostly Cloudy
3:15 PM 65.5 °F 59.0 °F 80% 29.81 in 10.0 mi SW 17.3 mph 25.3 mph N/A   Overcast
3:34 PM 66.4 °F 59.5 °F 79% 29.80 in 10.0 mi SW 16.1 mph 27.6 mph N/A   Scattered Clouds
3:55 PM 65.8 °F 59.0 °F 79% 29.80 in 10.0 mi SW 18.4 mph 25.3 mph N/A   Scattered Clouds
4:15 PM 65.3 °F 58.1 °F 77% 29.80 in 10.0 mi SW 18.4 mph 28.8 mph N/A   Scattered Clouds
4:35 PM 68.2 °F 59.5 °F 74% 29.80 in 10.0 mi SW 16.1 mph 21.9 mph N/A   Clear
4:55 PM 68.0 °F 59.7 °F 75% 29.80 in 10.0 mi SW 17.3 mph 25.3 mph N/A   Clear
5:15 PM 68.4 °F 59.4 °F 73% 29.80 in 10.0 mi SW 16.1 mph 23.0 mph N/A   Clear
5:35 PM 64.9 °F 56.3 °F 74% 29.80 in 10.0 mi SW 16.1 mph 26.5 mph N/A   Clear
5:55 PM 67.1 °F 57.6 °F 71% 29.79 in 10.0 mi SW 12.7 mph 21.9 mph N/A   Clear
6:15 PM 67.1 °F 57.4 °F 71% 29.79 in 10.0 mi SW 16.1 mph 23.0 mph N/A   Clear
6:35 PM 67.5 °F 58.5 °F 73% 29.78 in 10.0 mi SSW 13.8 mph 20.7 mph N/A   Clear
6:55 PM 68.4 °F 59.0 °F 72% 29.78 in 10.0 mi SSW 12.7 mph 20.7 mph N/A   Clear
7:14 PM 68.4 °F 59.4 °F 73% 29.77 in 10.0 mi SSW 11.5 mph 17.3 mph N/A   Clear
7:35 PM 68.2 °F 59.7 °F 74% 29.77 in 10.0 mi SW 10.4 mph - N/A   Clear
7:55 PM 67.5 °F 59.9 °F 77% 29.76 in 10.0 mi SSW 11.5 mph 19.6 mph N/A   Clear
8:15 PM 67.6 °F 60.6 °F 78% 29.77 in 10.0 mi SSW 16.1 mph 20.7 mph N/A   Clear
8:35 PM 67.5 °F 60.4 °F 78% 29.75 in 10.0 mi SSW 11.5 mph 17.3 mph N/A   Clear
8:55 PM 67.6 °F 60.4 °F 78% 29.75 in 10.0 mi SSW 10.4 mph 20.7 mph N/A   Clear
9:15 PM 66.4 °F 59.9 °F 80% 29.76 in 10.0 mi SSW 13.8 mph 19.6 mph N/A   Clear
9:35 PM 64.4 °F 58.6 °F 82% 29.76 in 10.0 mi SW 11.5 mph 18.4 mph N/A   Clear
9:54 PM 65.8 °F 59.4 °F 80% 29.76 in 10.0 mi SSW 13.8 mph 19.6 mph N/A   Scattered Clouds
10:15 PM 67.1 °F 59.4 °F 76% 29.76 in 10.0 mi SSW 9.2 mph 18.4 mph N/A   Clear
10:35 PM 67.1 °F 59.9 °F 78% 29.76 in 10.0 mi South 6.9 mph - N/A   Clear
10:55 PM 66.9 °F 59.5 °F 77% 29.76 in 10.0 mi South 5.8 mph - N/A   Clear
11:15 PM 63.7 °F 58.1 °F 82% 29.75 in 10.0 mi SSE 6.9 mph - N/A   Scattered Clouds
11:35 PM 63.9 °F 58.5 °F 83% 29.75 in 10.0 mi SSE 4.6 mph - N/A   Overcast
11:55 PM 65.7 °F 59.5 °F 81% 29.75 in 10.0 mi SE 4.6 mph - N/A   Overcast